Location: Drawsko Pomorskie
(53.5317°N, 15.8111°E)
Time: 06:18:43
(UTC+02:00)

ISS - Visible Passes

Search period start: 20 September 2018 00:00
Search period end: 30 September 2018 00:00
Orbit: 402 x 408 km, 51.6° (Epoch: 20 September)

Date Brightness Start Highest point End Pass type
(mag) Time Alt. Az. Time Alt. Az. Time Alt. Az.
22 Sep -1.3 20:28:25 10° S 20:28:34 10° S 20:28:34 10° S visible
23 Sep -1.4 21:11:11 10° SW 21:11:54 15° SSW 21:11:54 15° SSW visible
24 Sep -2.4 20:19:38 10° SSW 20:22:17 22° SSE 20:22:20 22° SSE visible
25 Sep -1.9 19:28:24 10° S 19:30:28 16° SE 19:32:33 10° ESE visible
25 Sep -2.5 21:03:15 10° WSW 21:05:17 31° SW 21:05:17 31° SW visible
26 Sep -3.0 20:11:27 10° SW 20:14:29 34° SSE 20:15:26 28° ESE visible
26 Sep -1.0 21:47:28 10° WSW 21:48:06 15° WSW 21:48:06 15° WSW visible
27 Sep -2.5 19:19:47 10° SSW 19:22:35 25° SSE 19:25:22 10° E visible
27 Sep -3.2 20:55:28 10° WSW 20:58:09 48° SW 20:58:09 48° SW visible
28 Sep -3.5 20:03:30 10° WSW 20:06:43 49° SSE 20:08:07 28° ESE visible
28 Sep -1.2 21:39:46 10° W 21:40:47 18° W 21:40:47 18° W visible
29 Sep -3.0 19:11:37 10° SW 19:14:43 38° SSE 19:17:49 10° E visible
29 Sep -3.6 20:47:43 10° W 20:50:42 59° SSW 20:50:42 59° SSW visible
